Time,TemperatureF,DewpointF,PressureIn,WindDirection,WindDirectionDegrees,WindSpeedMPH,WindSpeedGustMPH,Humidity,HourlyPrecipIn,Conditions,Clouds,dailyrainin,SoftwareType,DateUTC
2013-06-10 00:02:00,60.9,51.8,29.90,SSE,149,7.0,13.0,72,0.00,,,0.00,Wunderground v.1.15,2013-06-10 06:02:00,
2013-06-10 00:08:00,61.0,51.9,29.90,SSE,167,7.0,13.0,72,0.00,,,0.00,Wunderground v.1.15,2013-06-10 06:08:00,
2013-06-10 00:14:00,61.1,52.0,29.90,SE,129,7.0,13.0,72,0.00,,,0.00,Wunderground v.1.15,2013-06-10 06:14:00,
2013-06-10 00:20:00,60.7,52.0,29.89,SSE,154,6.0,13.0,73,0.00,,,0.00,Wunderground v.1.15,2013-06-10 06:20:00,
2013-06-10 00:26:00,60.5,51.8,29.89,SSE,158,6.0,13.0,73,0.00,,,0.00,Wunderground v.1.15,2013-06-10 06:26:00,
2013-06-10 00:32:00,60.4,52.1,29.89,ESE,118,6.0,13.0,74,0.00,,,0.00,Wunderground v.1.15,2013-06-10 06:32:00,
2013-06-10 00:38:00,60.4,52.1,29.89,SSE,162,6.0,13.0,74,0.00,,,0.00,Wunderground v.1.15,2013-06-10 06:38:00,
2013-06-10 00:44:00,60.3,52.0,29.89,SSE,156,6.0,13.0,74,0.00,,,0.00,Wunderground v.1.15,2013-06-10 06:44:00,
2013-06-10 00:50:00,60.1,52.1,29.88,SSE,163,6.0,13.0,75,0.00,,,0.00,Wunderground v.1.15,2013-06-10 06:50:00,
2013-06-10 00:56:00,60.2,52.2,29.88,SSE,150,7.0,13.0,75,0.00,,,0.00,Wunderground v.1.15,2013-06-10 06:56:00,
2013-06-10 01:02:00,60.5,52.2,29.88,SSE,158,8.0,13.0,74,0.00,,,0.00,Wunderground v.1.15,2013-06-10 07:02:00,
2013-06-10 01:08:00,60.7,52.4,29.87,South,179,7.0,13.0,74,0.00,,,0.00,Wunderground v.1.15,2013-06-10 07:08:00,
2013-06-10 01:14:00,60.4,52.1,29.87,South,183,7.0,13.0,74,0.00,,,0.00,Wunderground v.1.15,2013-06-10 07:14:00,
2013-06-10 01:20:00,60.4,52.1,29.86,South,172,7.0,13.0,74,0.00,,,0.00,Wunderground v.1.15,2013-06-10 07:20:00,
2013-06-10 01:26:00,60.1,51.8,29.86,South,171,8.0,13.0,74,0.00,,,0.00,Wunderground v.1.15,2013-06-10 07:26:00,
2013-06-10 01:32:00,59.9,52.0,29.86,South,183,7.0,13.0,75,0.00,,,0.00,Wunderground v.1.15,2013-06-10 07:32:00,
2013-06-10 01:38:00,60.2,51.9,29.86,SSE,161,8.0,13.0,74,0.00,,,0.00,Wunderground v.1.15,2013-06-10 07:38:00,
2013-06-10 01:44:00,60.6,51.9,29.86,South,179,9.0,13.0,73,0.00,,,0.00,Wunderground v.1.15,2013-06-10 07:44:00,
2013-06-10 01:50:00,60.8,51.3,29.85,South,177,9.0,13.0,71,0.00,,,0.00,Wunderground v.1.15,2013-06-10 07:50:00,
2013-06-10 01:56:00,61.2,51.3,29.85,SSE,161,10.0,13.0,70,0.00,,,0.00,Wunderground v.1.15,2013-06-10 07:56:00,
2013-06-10 02:02:00,61.2,51.3,29.85,South,190,10.0,13.0,70,0.00,,,0.00,Wunderground v.1.15,2013-06-10 08:02:00,
2013-06-10 02:08:00,61.3,51.0,29.85,South,185,11.0,13.0,69,0.00,,,0.00,Wunderground v.1.15,2013-06-10 08:08:00,
2013-06-10 02:14:00,61.4,51.1,29.84,South,174,12.0,18.0,69,0.00,,,0.00,Wunderground v.1.15,2013-06-10 08:14:00,
2013-06-10 02:20:00,61.5,51.2,29.84,SSE,163,11.0,14.0,69,0.00,,,0.00,Wunderground v.1.15,2013-06-10 08:20:00,
2013-06-10 02:26:00,61.4,51.1,29.83,SSE,161,11.0,15.0,69,0.00,,,0.00,Wunderground v.1.15,2013-06-10 08:26:00,
2013-06-10 02:32:00,61.3,51.0,29.83,SSE,167,12.0,13.0,69,0.00,,,0.00,Wunderground v.1.15,2013-06-10 08:32:00,
2013-06-10 02:38:00,61.3,51.0,29.83,South,172,12.0,16.0,69,0.00,,,0.00,Wunderground v.1.15,2013-06-10 08:38:00,
2013-06-10 02:44:00,61.2,50.9,29.83,SSW,206,12.0,15.0,69,0.00,,,0.00,Wunderground v.1.15,2013-06-10 08:44:00,
2013-06-10 02:50:00,61.3,50.6,29.83,SSE,161,13.0,19.0,68,0.00,,,0.00,Wunderground v.1.15,2013-06-10 08:50:00,
2013-06-10 02:56:00,61.2,50.9,29.82,South,170,14.0,19.0,69,0.00,,,0.00,Wunderground v.1.15,2013-06-10 08:56:00,
2013-06-10 03:02:00,61.2,50.9,29.82,SSE,164,12.0,17.0,69,0.00,,,0.00,Wunderground v.1.15,2013-06-10 09:02:00,
2013-06-10 03:08:00,61.1,50.8,29.82,SSE,152,11.0,17.0,69,0.00,,,0.00,Wunderground v.1.15,2013-06-10 09:08:00,
2013-06-10 03:14:00,61.0,50.8,29.82,SSE,162,10.0,13.0,69,0.00,,,0.00,Wunderground v.1.15,2013-06-10 09:14:00,
2013-06-10 03:20:00,60.6,50.8,29.82,SE,145,9.0,9.0,70,0.00,,,0.00,Wunderground v.1.15,2013-06-10 09:20:00,
2013-06-10 03:26:00,60.7,50.9,29.81,SSE,163,9.0,13.0,70,0.00,,,0.00,Wunderground v.1.15,2013-06-10 09:26:00,
2013-06-10 03:32:00,60.8,51.0,29.81,South,187,9.0,13.0,70,0.00,,,0.00,Wunderground v.1.15,2013-06-10 09:32:00,
2013-06-10 03:38:00,60.5,50.7,29.81,SSE,166,7.0,13.0,70,0.00,,,0.00,Wunderground v.1.15,2013-06-10 09:38:00,
2013-06-10 03:44:00,59.8,50.8,29.80,SSE,167,8.0,12.0,72,0.00,,,0.00,Wunderground v.1.15,2013-06-10 09:44:00,
2013-06-10 03:50:00,59.5,50.5,29.80,SSE,160,9.0,13.0,72,0.00,,,0.00,Wunderground v.1.15,2013-06-10 09:50:00,
2013-06-10 03:56:00,59.3,50.6,29.79,SSE,155,12.0,14.0,73,0.00,,,0.00,Wunderground v.1.15,2013-06-10 09:56:00,
2013-06-10 04:02:00,59.3,50.3,29.78,South,175,13.0,14.0,72,0.00,,,0.00,Wunderground v.1.15,2013-06-10 10:02:00,
2013-06-10 04:08:00,59.1,50.5,29.78,SSE,162,14.0,20.0,73,0.00,,,0.00,Wunderground v.1.15,2013-06-10 10:08:00,
2013-06-10 04:14:00,58.5,50.2,29.77,SSE,162,14.0,14.0,74,0.00,,,0.00,Wunderground v.1.15,2013-06-10 10:14:00,
2013-06-10 04:20:00,58.4,50.1,29.77,SSE,166,14.0,14.0,74,0.00,,,0.00,Wunderground v.1.15,2013-06-10 10:20:00,
2013-06-10 04:26:00,58.5,50.2,29.77,South,173,14.0,14.0,74,0.00,,,0.00,Wunderground v.1.15,2013-06-10 10:26:00,
2013-06-10 04:32:00,58.5,50.2,29.78,SSE,166,15.0,20.0,74,0.00,,,0.00,Wunderground v.1.15,2013-06-10 10:32:00,
2013-06-10 04:38:00,58.3,50.0,29.78,South,174,14.0,20.0,74,0.00,,,0.00,Wunderground v.1.15,2013-06-10 10:38:00,
2013-06-10 04:44:00,58.4,50.1,29.78,South,171,14.0,14.0,74,0.00,,,0.00,Wunderground v.1.15,2013-06-10 10:44:00,
2013-06-10 04:50:00,58.2,50.0,29.78,South,174,14.0,16.0,74,0.00,,,0.00,Wunderground v.1.15,2013-06-10 10:50:00,
2013-06-10 04:55:00,58.3,50.0,29.77,South,189,14.0,17.0,74,0.00,,,0.00,Wunderground v.1.15,2013-06-10 10:55:00,
2013-06-10 05:02:00,58.3,50.0,29.77,South,171,14.0,17.0,74,0.00,,,0.00,Wunderground v.1.15,2013-06-10 11:02:00,
2013-06-10 05:08:00,58.1,50.2,29.77,SSE,166,14.0,20.0,75,0.00,,,0.00,Wunderground v.1.15,2013-06-10 11:08:00,
2013-06-10 05:13:00,58.0,50.1,29.77,SSE,168,15.0,15.0,75,0.00,,,0.00,Wunderground v.1.15,2013-06-10 11:13:00,
2013-06-10 05:20:00,57.9,50.0,29.77,SSE,164,13.0,14.0,75,0.00,,,0.00,Wunderground v.1.15,2013-06-10 11:20:00,
2013-06-10 05:26:00,57.8,49.9,29.78,South,171,13.0,14.0,75,0.00,,,0.00,Wunderground v.1.15,2013-06-10 11:26:00,
2013-06-10 05:32:00,57.9,50.0,29.78,SSE,164,12.0,13.0,75,0.00,,,0.00,Wunderground v.1.15,2013-06-10 11:32:00,
2013-06-10 05:38:00,57.9,50.0,29.79,South,181,12.0,16.0,75,0.00,,,0.00,Wunderground v.1.15,2013-06-10 11:38:00,
2013-06-10 05:44:00,58.0,50.1,29.79,South,178,11.0,13.0,75,0.00,,,0.00,Wunderground v.1.15,2013-06-10 11:44:00,
2013-06-10 05:50:00,58.0,50.1,29.79,SSE,164,11.0,11.0,75,0.00,,,0.00,Wunderground v.1.15,2013-06-10 11:50:00,
2013-06-10 05:56:00,58.1,50.2,29.80,South,173,10.0,13.0,75,0.00,,,0.00,Wunderground v.1.15,2013-06-10 11:56:00,
2013-06-10 06:02:00,58.5,50.6,29.81,WSW,241,7.0,13.0,75,0.00,,,0.00,Wunderground v.1.15,2013-06-10 12:02:00,
2013-06-10 06:08:00,58.9,50.6,29.81,SSE,151,2.0,13.0,74,0.00,,,0.00,Wunderground v.1.15,2013-06-10 12:08:00,
2013-06-10 06:14:00,59.3,50.6,29.81,South,181,4.0,13.0,73,0.00,,,0.00,Wunderground v.1.15,2013-06-10 12:14:00,
2013-06-10 06:20:00,59.3,51.0,29.81,SSE,167,7.0,7.0,74,0.00,,,0.00,Wunderground v.1.15,2013-06-10 12:20:00,
2013-06-10 06:26:00,59.5,51.2,29.82,WNW,303,6.0,13.0,74,0.00,,,0.00,Wunderground v.1.15,2013-06-10 12:26:00,
2013-06-10 06:32:00,60.1,51.4,29.83,West,269,3.0,13.0,73,0.00,,,0.00,Wunderground v.1.15,2013-06-10 12:32:00,
2013-06-10 06:38:00,60.4,51.7,29.82,West,268,1.0,13.0,73,0.00,,,0.00,Wunderground v.1.15,2013-06-10 12:38:00,
2013-06-10 06:44:00,60.9,51.8,29.82,South,173,1.0,13.0,72,0.00,,,0.00,Wunderground v.1.15,2013-06-10 12:44:00,
2013-06-10 06:50:00,61.1,52.4,29.82,South,170,1.0,13.0,73,0.00,,,0.00,Wunderground v.1.15,2013-06-10 12:50:00,
2013-06-10 06:56:00,61.2,52.1,29.82,SSE,162,2.0,13.0,72,0.00,,,0.00,Wunderground v.1.15,2013-06-10 12:56:00,
2013-06-10 07:02:00,61.1,52.0,29.82,South,175,5.0,13.0,72,0.00,,,0.00,Wunderground v.1.15,2013-06-10 13:02:00,
2013-06-10 07:08:00,62.2,51.5,29.83,SSW,195,3.0,13.0,68,0.00,,,0.00,Wunderground v.1.15,2013-06-10 13:08:00,
2013-06-10 07:14:00,63.6,52.4,29.84,SW,219,1.0,13.0,67,0.00,,,0.00,Wunderground v.1.15,2013-06-10 13:14:00,
2013-06-10 07:20:00,63.8,51.8,29.83,SSE,166,3.0,3.0,65,0.00,,,0.00,Wunderground v.1.15,2013-06-10 13:20:00,
2013-06-10 07:26:00,63.8,53.0,29.83,SSE,167,3.0,13.0,68,0.00,,,0.00,Wunderground v.1.15,2013-06-10 13:26:00,
2013-06-10 07:32:00,63.9,53.1,29.84,SSE,167,0.0,13.0,68,0.00,,,0.00,Wunderground v.1.15,2013-06-10 13:32:00,
2013-06-10 07:38:00,64.2,52.6,29.84,SSE,168,1.0,13.0,66,0.00,,,0.00,Wunderground v.1.15,2013-06-10 13:38:00,
2013-06-10 07:44:00,64.4,54.0,29.84,SW,221,1.0,13.0,69,0.00,,,0.00,Wunderground v.1.15,2013-06-10 13:44:00,
2013-06-10 07:50:00,64.0,53.6,29.84,NW,307,2.0,13.0,69,0.00,,,0.00,Wunderground v.1.15,2013-06-10 13:50:00,
2013-06-10 07:56:00,64.0,55.2,29.84,WNW,296,2.0,13.0,73,0.00,,,0.00,Wunderground v.1.15,2013-06-10 13:56:00,
2013-06-10 08:02:00,64.3,54.7,29.84,NW,308,1.0,13.0,71,0.00,,,0.00,Wunderground v.1.15,2013-06-10 14:02:00,
2013-06-10 08:08:00,64.6,54.2,29.84,NNW,327,2.0,13.0,69,0.00,,,0.00,Wunderground v.1.15,2013-06-10 14:08:00,
2013-06-10 08:14:00,64.8,54.4,29.85,NW,318,3.0,13.0,69,0.00,,,0.00,Wunderground v.1.15,2013-06-10 14:14:00,
2013-06-10 08:20:00,64.9,54.1,29.85,WNW,303,3.0,3.0,68,0.00,,,0.00,Wunderground v.1.15,2013-06-10 14:20:00,
2013-06-10 08:26:00,65.2,55.2,29.85,NW,309,2.0,13.0,70,0.00,,,0.00,Wunderground v.1.15,2013-06-10 14:26:00,
2013-06-10 08:32:00,65.5,55.5,29.85,NW,314,2.0,13.0,70,0.00,,,0.00,Wunderground v.1.15,2013-06-10 14:32:00,
2013-06-10 08:38:00,66.4,55.1,29.85,NW,314,3.0,13.0,67,0.00,,,0.00,Wunderground v.1.15,2013-06-10 14:38:00,
2013-06-10 08:44:00,67.4,56.1,29.85,WNW,293,4.0,13.0,67,0.00,,,0.00,Wunderground v.1.15,2013-06-10 14:44:00,
2013-06-10 08:50:00,67.7,56.3,29.86,WNW,298,4.0,4.0,67,0.00,,,0.00,Wunderground v.1.15,2013-06-10 14:50:00,
2013-06-10 08:56:00,68.3,56.5,29.86,NNW,340,4.0,13.0,66,0.00,,,0.00,Wunderground v.1.15,2013-06-10 14:56:00,
2013-06-10 09:02:00,68.8,55.7,29.86,WNW,301,5.0,13.0,63,0.00,,,0.00,Wunderground v.1.15,2013-06-10 15:02:00,
2013-06-10 09:08:00,69.4,57.5,29.86,NNW,342,7.0,13.0,66,0.00,,,0.00,Wunderground v.1.15,2013-06-10 15:08:00,
2013-06-10 09:14:00,69.6,56.4,29.86,NNW,337,6.0,13.0,63,0.00,,,0.00,Wunderground v.1.15,2013-06-10 15:14:00,
2013-06-10 09:20:00,70.0,57.3,29.86,NNW,331,6.0,13.0,64,0.00,,,0.00,Wunderground v.1.15,2013-06-10 15:20:00,
2013-06-10 09:26:00,70.3,58.0,29.86,North,354,6.0,13.0,65,0.00,,,0.00,Wunderground v.1.15,2013-06-10 15:26:00,
2013-06-10 09:32:00,70.9,58.5,29.86,North,350,4.0,13.0,65,0.00,,,0.00,Wunderground v.1.15,2013-06-10 15:32:00,
2013-06-10 09:38:00,71.4,58.6,29.86,North,4,4.0,13.0,64,0.00,,,0.00,Wunderground v.1.15,2013-06-10 15:38:00,
2013-06-10 09:44:00,72.0,59.2,29.86,NNW,348,5.0,13.0,64,0.00,,,0.00,Wunderground v.1.15,2013-06-10 15:44:00,
2013-06-10 09:50:00,72.2,57.5,29.86,NW,326,7.0,7.0,60,0.00,,,0.00,Wunderground v.1.15,2013-06-10 15:50:00,
2013-06-10 09:56:00,72.5,58.3,29.86,North,354,8.0,13.0,61,0.00,,,0.00,Wunderground v.1.15,2013-06-10 15:56:00,
2013-06-10 10:02:00,73.0,59.2,29.86,North,359,9.0,13.0,62,0.00,,,0.00,Wunderground v.1.15,2013-06-10 16:02:00,
2013-06-10 10:08:00,73.5,58.8,29.86,NW,323,9.0,13.0,60,0.00,,,0.00,Wunderground v.1.15,2013-06-10 16:08:00,
2013-06-10 10:14:00,74.0,59.2,29.86,North,354,9.0,13.0,60,0.00,,,0.00,Wunderground v.1.15,2013-06-10 16:14:00,
2013-06-10 10:20:00,74.5,58.8,29.86,North,354,9.0,13.0,58,0.00,,,0.00,Wunderground v.1.15,2013-06-10 16:20:00,
2013-06-10 10:26:00,74.6,58.4,29.86,NW,323,10.0,13.0,57,0.00,,,0.00,Wunderground v.1.15,2013-06-10 16:26:00,
2013-06-10 10:32:00,74.7,58.9,29.86,North,4,11.0,13.0,58,0.00,,,0.00,Wunderground v.1.15,2013-06-10 16:32:00,
2013-06-10 10:38:00,75.6,58.8,29.86,NW,313,12.0,15.0,56,0.00,,,0.00,Wunderground v.1.15,2013-06-10 16:38:00,
2013-06-10 10:44:00,75.7,57.9,29.86,NNW,346,13.0,13.0,54,0.00,,,0.00,Wunderground v.1.15,2013-06-10 16:44:00,
2013-06-10 10:50:00,75.9,58.6,29.85,NNW,341,13.0,13.0,55,0.00,,,0.00,Wunderground v.1.15,2013-06-10 16:50:00,
2013-06-10 10:56:00,76.5,57.6,29.85,NNW,343,13.0,15.0,52,0.00,,,0.00,Wunderground v.1.15,2013-06-10 16:56:00,
2013-06-10 11:02:00,76.9,57.9,29.85,NNW,338,13.0,19.0,52,0.00,,,0.00,Wunderground v.1.15,2013-06-10 17:02:00,
2013-06-10 11:08:00,77.1,57.6,29.86,North,359,13.0,19.0,51,0.00,,,0.00,Wunderground v.1.15,2013-06-10 17:08:00,
2013-06-10 11:14:00,77.1,57.6,29.86,NNE,17,13.0,21.0,51,0.00,,,0.00,Wunderground v.1.15,2013-06-10 17:14:00,
2013-06-10 11:20:00,76.9,57.9,29.87,NNE,16,14.0,14.0,52,0.00,,,0.00,Wunderground v.1.15,2013-06-10 17:20:00,
2013-06-10 11:26:00,77.1,58.1,29.86,NW,323,14.0,15.0,52,0.00,,,0.00,Wunderground v.1.15,2013-06-10 17:26:00,
2013-06-10 11:32:00,77.7,58.7,29.86,NNW,327,13.0,15.0,52,0.00,,,0.00,Wunderground v.1.15,2013-06-10 17:32:00,
2013-06-10 11:38:00,77.5,57.9,29.86,NNW,345,13.0,19.0,51,0.00,,,0.00,Wunderground v.1.15,2013-06-10 17:38:00,
2013-06-10 11:44:00,77.3,57.8,29.86,NNE,17,14.0,20.0,51,0.00,,,0.00,Wunderground v.1.15,2013-06-10 17:44:00,
2013-06-10 11:50:00,77.1,58.1,29.86,North,354,14.0,14.0,52,0.00,,,0.00,Wunderground v.1.15,2013-06-10 17:50:00,
2013-06-10 11:56:00,77.8,59.3,29.86,NNW,341,14.0,20.0,53,0.00,,,0.00,Wunderground v.1.15,2013-06-10 17:56:00,
2013-06-10 12:02:00,77.8,58.2,29.86,North,350,13.0,23.0,51,0.00,,,0.00,Wunderground v.1.15,2013-06-10 18:02:00,
2013-06-10 12:08:00,77.5,59.0,29.86,North,4,14.0,23.0,53,0.00,,,0.00,Wunderground v.1.15,2013-06-10 18:08:00,
2013-06-10 12:14:00,77.9,59.9,29.87,North,9,12.0,14.0,54,0.00,,,0.00,Wunderground v.1.15,2013-06-10 18:14:00,
2013-06-10 12:20:00,78.2,57.5,29.87,NW,315,11.0,13.0,49,0.00,,,0.00,Wunderground v.1.15,2013-06-10 18:20:00,
2013-06-10 12:26:00,78.0,58.4,29.87,NNW,337,12.0,18.0,51,0.00,,,0.00,Wunderground v.1.15,2013-06-10 18:26:00,
2013-06-10 12:32:00,78.1,58.5,29.87,North,354,13.0,17.0,51,0.00,,,0.00,Wunderground v.1.15,2013-06-10 18:32:00,
2013-06-10 12:38:00,78.0,58.9,29.87,NNW,339,13.0,17.0,52,0.00,,,0.00,Wunderground v.1.15,2013-06-10 18:38:00,
2013-06-10 12:44:00,78.2,59.1,29.87,NW,326,12.0,16.0,52,0.00,,,0.00,Wunderground v.1.15,2013-06-10 18:44:00,
2013-06-10 12:50:00,78.2,58.6,29.87,NNW,328,12.0,12.0,51,0.00,,,0.00,Wunderground v.1.15,2013-06-10 18:50:00,
2013-06-10 12:56:00,78.0,58.4,29.87,NNW,338,13.0,13.0,51,0.00,,,0.00,Wunderground v.1.15,2013-06-10 18:56:00,
2013-06-10 13:02:00,78.3,59.2,29.87,NNW,344,12.0,13.0,52,0.00,,,0.00,Wunderground v.1.15,2013-06-10 19:02:00,
2013-06-10 13:08:00,78.8,60.2,29.87,North,4,11.0,13.0,53,0.00,,,0.00,Wunderground v.1.15,2013-06-10 19:08:00,
2013-06-10 13:14:00,78.6,58.4,29.87,NW,325,11.0,15.0,50,0.00,,,0.00,Wunderground v.1.15,2013-06-10 19:14:00,
2013-06-10 13:20:00,78.7,58.5,29.87,NNW,343,12.0,12.0,50,0.00,,,0.00,Wunderground v.1.15,2013-06-10 19:20:00,
2013-06-10 13:26:00,78.4,58.2,29.87,North,359,12.0,15.0,50,0.00,,,0.00,Wunderground v.1.15,2013-06-10 19:26:00,
2013-06-10 13:32:00,78.9,59.2,29.87,North,10,10.0,13.0,51,0.00,,,0.00,Wunderground v.1.15,2013-06-10 19:32:00,
2013-06-10 13:38:00,78.8,59.7,29.87,NNE,15,9.0,13.0,52,0.00,,,0.00,Wunderground v.1.15,2013-06-10 19:38:00,
2013-06-10 13:44:00,79.0,59.9,29.87,NNW,330,9.0,13.0,52,0.00,,,0.00,Wunderground v.1.15,2013-06-10 19:44:00,
2013-06-10 13:50:00,79.0,59.3,29.88,NNW,335,10.0,16.0,51,0.00,,,0.00,Wunderground v.1.15,2013-06-10 19:50:00,
2013-06-10 13:56:00,79.0,57.6,29.88,NNW,332,11.0,16.0,48,0.00,,,0.00,Wunderground v.1.15,2013-06-10 19:56:00,
2013-06-10 14:02:00,79.4,59.7,29.88,NW,323,10.0,15.0,51,0.00,,,0.00,Wunderground v.1.15,2013-06-10 20:02:00,
2013-06-10 14:08:00,79.5,58.7,29.88,NNW,343,10.0,15.0,49,0.00,,,0.00,Wunderground v.1.15,2013-06-10 20:08:00,
2013-06-10 14:14:00,79.7,60.5,29.88,North,354,10.0,14.0,52,0.00,,,0.00,Wunderground v.1.15,2013-06-10 20:14:00,
2013-06-10 14:20:00,80.2,59.3,29.88,North,4,10.0,10.0,49,0.00,,,0.00,Wunderground v.1.15,2013-06-10 20:20:00,
2013-06-10 14:26:00,79.7,59.4,29.89,NW,318,11.0,13.0,50,0.00,,,0.00,Wunderground v.1.15,2013-06-10 20:26:00,
2013-06-10 14:32:00,79.0,59.3,29.90,North,354,11.0,13.0,51,0.00,,,0.00,Wunderground v.1.15,2013-06-10 20:32:00,
2013-06-10 14:38:00,79.7,60.5,29.89,North,8,9.0,13.0,52,0.00,,,0.00,Wunderground v.1.15,2013-06-10 20:38:00,
2013-06-10 14:44:00,79.8,59.5,29.89,North,4,9.0,13.0,50,0.00,,,0.00,Wunderground v.1.15,2013-06-10 20:44:00,
2013-06-10 14:50:00,79.7,59.4,29.90,North,8,10.0,10.0,50,0.00,,,0.00,Wunderground v.1.15,2013-06-10 20:50:00,
2013-06-10 14:56:00,78.6,59.5,29.89,NNE,23,9.0,13.0,52,0.00,,,0.00,Wunderground v.1.15,2013-06-10 20:56:00,
2013-06-10 15:02:00,79.3,59.6,29.89,North,8,9.0,13.0,51,0.00,,,0.00,Wunderground v.1.15,2013-06-10 21:02:00,
2013-06-10 15:08:00,79.8,58.9,29.89,North,350,10.0,13.0,49,0.00,,,0.00,Wunderground v.1.15,2013-06-10 21:08:00,
2013-06-10 15:14:00,79.8,58.9,29.89,North,354,9.0,13.0,49,0.00,,,0.00,Wunderground v.1.15,2013-06-10 21:14:00,
2013-06-10 15:20:00,79.4,59.1,29.89,NNW,343,10.0,10.0,50,0.00,,,0.00,Wunderground v.1.15,2013-06-10 21:20:00,
2013-06-10 15:26:00,79.8,59.5,29.89,NW,319,10.0,13.0,50,0.00,,,0.00,Wunderground v.1.15,2013-06-10 21:26:00,
2013-06-10 15:32:00,79.8,58.4,29.89,North,4,9.0,13.0,48,0.00,,,0.00,Wunderground v.1.15,2013-06-10 21:32:00,
2013-06-10 15:38:00,79.8,58.9,29.89,North,4,10.0,13.0,49,0.00,,,0.00,Wunderground v.1.15,2013-06-10 21:38:00,
2013-06-10 15:44:00,80.0,59.7,29.89,NNW,343,9.0,13.0,50,0.00,,,0.00,Wunderground v.1.15,2013-06-10 21:44:00,
2013-06-10 15:50:00,80.2,59.9,29.89,North,8,8.0,8.0,50,0.00,,,0.00,Wunderground v.1.15,2013-06-10 21:50:00,
2013-06-10 15:56:00,80.2,59.3,29.88,North,4,8.0,13.0,49,0.00,,,0.00,Wunderground v.1.15,2013-06-10 21:56:00,
2013-06-10 16:02:00,80.1,58.6,29.88,NNW,340,10.0,10.0,48,0.00,,,0.00,Wunderground v.1.15,2013-06-10 22:02:00,
2013-06-10 16:08:00,79.6,57.6,29.88,North,4,10.0,13.0,47,0.00,,,0.00,Wunderground v.1.15,2013-06-10 22:08:00,
2013-06-10 16:14:00,79.7,59.4,29.88,NNE,13,9.0,13.0,50,0.00,,,0.00,Wunderground v.1.15,2013-06-10 22:14:00,
2013-06-10 16:20:00,79.5,58.1,29.89,NNW,344,9.0,13.0,48,0.00,,,0.00,Wunderground v.1.15,2013-06-10 22:20:00,
2013-06-10 16:26:00,79.3,57.9,29.89,NNW,344,9.0,17.0,48,0.00,,,0.00,Wunderground v.1.15,2013-06-10 22:26:00,
2013-06-10 16:32:00,79.3,56.7,29.89,NNW,328,10.0,15.0,46,0.00,,,0.00,Wunderground v.1.15,2013-06-10 22:32:00,
2013-06-10 16:38:00,79.5,58.1,29.89,NNW,333,9.0,15.0,48,0.00,,,0.00,Wunderground v.1.15,2013-06-10 22:38:00,
2013-06-10 16:44:00,79.0,59.3,29.88,North,354,8.0,13.0,51,0.00,,,0.00,Wunderground v.1.15,2013-06-10 22:44:00,
2013-06-10 16:50:00,79.2,59.0,29.88,North,4,8.0,8.0,50,0.00,,,0.00,Wunderground v.1.15,2013-06-10 22:50:00,
2013-06-10 16:56:00,79.4,59.7,29.88,North,350,8.0,13.0,51,0.00,,,0.00,Wunderground v.1.15,2013-06-10 22:56:00,
2013-06-10 17:01:00,79.2,59.5,29.89,NNW,328,8.0,13.0,51,0.00,,,0.00,Wunderground v.1.15,2013-06-10 23:01:00,
2013-06-10 17:08:00,79.5,59.8,29.88,North,4,7.0,13.0,51,0.00,,,0.00,Wunderground v.1.15,2013-06-10 23:08:00,
2013-06-10 17:14:00,79.5,59.8,29.88,NNW,340,8.0,13.0,51,0.00,,,0.00,Wunderground v.1.15,2013-06-10 23:14:00,
2013-06-10 17:20:00,78.5,59.4,29.89,NNW,341,9.0,13.0,52,0.00,,,0.00,Wunderground v.1.15,2013-06-10 23:20:00,
2013-06-10 17:26:00,78.0,59.5,29.89,NNE,23,9.0,13.0,53,0.00,,,0.00,Wunderground v.1.15,2013-06-10 23:26:00,
2013-06-10 17:32:00,78.0,59.5,29.88,NNW,347,7.0,13.0,53,0.00,,,0.00,Wunderground v.1.15,2013-06-10 23:32:00,
2013-06-10 17:38:00,78.0,60.0,29.88,North,8,7.0,13.0,54,0.00,,,0.00,Wunderground v.1.15,2013-06-10 23:38:00,
2013-06-10 17:44:00,77.5,59.5,29.88,NNE,15,7.0,13.0,54,0.00,,,0.00,Wunderground v.1.15,2013-06-10 23:44:00,
2013-06-10 17:50:00,77.0,59.6,29.87,North,359,7.0,13.0,55,0.00,,,0.00,Wunderground v.1.15,2013-06-10 23:50:00,
2013-06-10 17:56:00,77.2,59.3,29.88,North,8,8.0,13.0,54,0.00,,,0.00,Wunderground v.1.15,2013-06-10 23:56:00,
2013-06-10 18:02:00,77.8,59.3,29.90,North,354,7.0,13.0,53,0.00,,,0.00,Wunderground v.1.15,2013-06-11 00:02:00,
2013-06-10 18:08:00,77.6,59.1,29.89,NNE,26,7.0,13.0,53,0.00,,,0.00,Wunderground v.1.15,2013-06-11 00:08:00,
2013-06-10 18:14:00,77.4,59.5,29.89,NE,35,7.0,13.0,54,0.00,,,0.00,Wunderground v.1.15,2013-06-11 00:14:00,
2013-06-10 18:20:00,77.3,58.8,29.89,NNE,12,7.0,7.0,53,0.00,,,0.00,Wunderground v.1.15,2013-06-11 00:20:00,
2013-06-10 18:26:00,77.2,58.2,29.88,North,349,7.0,13.0,52,0.00,,,0.00,Wunderground v.1.15,2013-06-11 00:26:00,
2013-06-10 18:32:00,77.2,58.2,29.89,North,4,7.0,9.0,52,0.00,,,0.00,Wunderground v.1.15,2013-06-11 00:32:00,
2013-06-10 18:38:00,76.9,59.0,29.89,NNE,21,7.0,13.0,54,0.00,,,0.00,Wunderground v.1.15,2013-06-11 00:38:00,
2013-06-10 18:44:00,76.9,59.5,29.89,NNE,29,5.0,13.0,55,0.00,,,0.00,Wunderground v.1.15,2013-06-11 00:44:00,
2013-06-10 18:50:00,76.7,59.3,29.90,NNE,26,5.0,5.0,55,0.00,,,0.00,Wunderground v.1.15,2013-06-11 00:50:00,
2013-06-10 18:56:00,76.7,59.8,29.90,NNE,25,5.0,13.0,56,0.00,,,0.00,Wunderground v.1.15,2013-06-11 00:56:00,
2013-06-10 19:02:00,76.5,59.1,29.90,NNE,14,5.0,13.0,55,0.00,,,0.00,Wunderground v.1.15,2013-06-11 01:02:00,
2013-06-10 19:08:00,76.4,59.5,29.90,NNW,347,5.0,13.0,56,0.00,,,0.00,Wunderground v.1.15,2013-06-11 01:08:00,
2013-06-10 19:14:00,76.1,59.3,29.90,NNE,18,4.0,13.0,56,0.00,,,0.00,Wunderground v.1.15,2013-06-11 01:14:00,
2013-06-10 19:20:00,75.8,59.5,29.89,NNE,31,4.0,4.0,57,0.00,,,0.00,Wunderground v.1.15,2013-06-11 01:20:00,
2013-06-10 19:26:00,75.4,58.6,29.90,NNE,31,4.0,13.0,56,0.00,,,0.00,Wunderground v.1.15,2013-06-11 01:26:00,
2013-06-10 19:32:00,75.1,59.3,29.90,NNE,18,4.0,13.0,58,0.00,,,0.00,Wunderground v.1.15,2013-06-11 01:32:00,
2013-06-10 19:38:00,75.3,59.5,29.90,NNE,30,2.0,13.0,58,0.00,,,0.00,Wunderground v.1.15,2013-06-11 01:38:00,
2013-06-10 19:44:00,75.3,60.0,29.90,NNE,30,0.0,13.0,59,0.00,,,0.00,Wunderground v.1.15,2013-06-11 01:44:00,
2013-06-10 19:50:00,74.8,59.5,29.90,NNE,30,2.0,2.0,59,0.00,,,0.00,Wunderground v.1.15,2013-06-11 01:50:00,
2013-06-10 19:56:00,74.3,59.5,29.91,NNE,30,2.0,13.0,60,0.00,,,0.00,Wunderground v.1.15,2013-06-11 01:56:00,
2013-06-10 20:02:00,74.0,59.2,29.91,NNE,31,1.0,3.0,60,0.00,,,0.00,Wunderground v.1.15,2013-06-11 02:02:00,
2013-06-10 20:08:00,73.6,59.8,29.90,NNE,31,2.0,13.0,62,0.00,,,0.00,Wunderground v.1.15,2013-06-11 02:08:00,
2013-06-10 20:14:00,72.9,59.6,29.90,NE,53,2.0,13.0,63,0.00,,,0.00,Wunderground v.1.15,2013-06-11 02:14:00,
2013-06-10 20:19:00,72.2,59.3,29.90,NNE,25,2.0,13.0,64,0.00,,,0.00,Wunderground v.1.15,2013-06-11 02:19:00,
2013-06-10 20:26:00,71.8,59.8,29.90,NNE,31,2.0,13.0,66,0.00,,,0.00,Wunderground v.1.15,2013-06-11 02:26:00,
2013-06-10 20:32:00,71.5,59.5,29.90,NNE,23,3.0,13.0,66,0.00,,,0.00,Wunderground v.1.15,2013-06-11 02:32:00,
2013-06-10 20:37:00,71.1,59.6,29.90,NE,35,2.0,13.0,67,0.00,,,0.00,Wunderground v.1.15,2013-06-11 02:37:00,
2013-06-10 20:44:00,70.6,59.5,29.91,NE,35,0.0,13.0,68,0.00,,,0.00,Wunderground v.1.15,2013-06-11 02:44:00,
2013-06-10 20:50:00,69.6,59.4,29.91,SE,125,1.0,1.0,70,0.00,,,0.00,Wunderground v.1.15,2013-06-11 02:50:00,
2013-06-10 20:56:00,69.3,59.5,29.92,SE,125,1.0,13.0,71,0.00,,,0.00,Wunderground v.1.15,2013-06-11 02:56:00,
2013-06-10 21:02:00,69.3,59.5,29.92,SE,125,0.0,13.0,71,0.00,,,0.00,Wunderground v.1.15,2013-06-11 03:02:00,
2013-06-10 21:07:00,69.2,59.0,29.93,SE,125,0.0,13.0,70,0.00,,,0.00,Wunderground v.1.15,2013-06-11 03:07:00,
2013-06-10 21:14:00,69.2,59.0,29.92,SE,125,0.0,13.0,70,0.00,,,0.00,Wunderground v.1.15,2013-06-11 03:14:00,
2013-06-10 21:20:00,69.4,59.2,29.93,ESE,108,0.0,13.0,70,0.00,,,0.00,Wunderground v.1.15,2013-06-11 03:20:00,
2013-06-10 21:26:00,69.2,59.0,29.93,ESE,108,0.0,13.0,70,0.00,,,0.00,Wunderground v.1.15,2013-06-11 03:26:00,
2013-06-10 21:32:00,69.0,58.8,29.93,ESE,108,0.0,13.0,70,0.00,,,0.00,Wunderground v.1.15,2013-06-11 03:32:00,
2013-06-10 21:38:00,68.9,58.7,29.93,ESE,108,0.0,13.0,70,0.00,,,0.00,Wunderground v.1.15,2013-06-11 03:38:00,
2013-06-10 21:44:00,68.7,58.9,29.93,ESE,108,0.0,13.0,71,0.00,,,0.00,Wunderground v.1.15,2013-06-11 03:44:00,
2013-06-10 21:50:00,68.4,58.6,29.94,ESE,108,0.0,13.0,71,0.00,,,0.00,Wunderground v.1.15,2013-06-11 03:50:00,
2013-06-10 21:56:00,67.7,58.7,29.95,ESE,108,0.0,13.0,73,0.00,,,0.00,Wunderground v.1.15,2013-06-11 03:56:00,
2013-06-10 22:02:00,67.3,58.7,29.95,ESE,108,0.0,13.0,74,0.00,,,0.00,Wunderground v.1.15,2013-06-11 04:02:00,
2013-06-10 22:04:00,67.2,59.0,29.95,SSW,212,1.0,13.0,75,0.00,,,0.00,Wunderground v.1.15,2013-06-11 04:04:00,
2013-06-10 22:06:00,67.1,59.3,29.96,SSW,213,1.0,13.0,76,0.00,,,0.00,Wunderground v.1.15,2013-06-11 04:06:00,
2013-06-10 22:12:00,67.0,59.2,29.94,SW,215,1.0,13.0,76,0.00,,,0.00,Wunderground v.1.15,2013-06-11 04:12:00,
2013-06-10 22:18:00,66.8,59.0,29.93,SW,215,0.0,13.0,76,0.00,,,0.00,Wunderground v.1.15,2013-06-11 04:18:00,
2013-06-10 22:24:00,66.7,59.3,29.93,SW,215,0.0,13.0,77,0.00,,,0.00,Wunderground v.1.15,2013-06-11 04:24:00,
2013-06-10 22:30:00,66.7,58.9,29.92,SW,215,0.0,13.0,76,0.00,,,0.00,Wunderground v.1.15,2013-06-11 04:30:00,
2013-06-10 22:36:00,66.9,58.7,29.92,SW,214,0.0,13.0,75,0.00,,,0.00,Wunderground v.1.15,2013-06-11 04:36:00,
2013-06-10 22:42:00,67.2,59.0,29.92,SW,214,0.0,13.0,75,0.00,,,0.00,Wunderground v.1.15,2013-06-11 04:42:00,
2013-06-10 22:44:00,67.4,59.2,29.91,SW,214,0.0,13.0,75,0.00,,,0.00,Wunderground v.1.15,2013-06-11 04:44:00,
2013-06-10 22:50:00,67.5,59.3,29.88,SE,134,2.0,13.0,75,0.00,,,0.00,Wunderground v.1.15,2013-06-11 04:50:00,
2013-06-10 22:56:00,67.6,59.0,29.86,ESE,117,6.0,13.0,74,0.00,,,0.00,Wunderground v.1.15,2013-06-11 04:56:00,
2013-06-10 23:02:00,68.1,59.1,29.90,ESE,118,6.0,13.0,73,0.00,,,0.00,Wunderground v.1.15,2013-06-11 05:02:00,
2013-06-10 23:08:00,68.1,59.1,29.92,NNW,333,2.0,13.0,73,0.00,,,0.00,Wunderground v.1.15,2013-06-11 05:08:00,
2013-06-10 23:14:00,67.9,59.3,29.92,NNW,333,1.0,13.0,74,0.00,,,0.00,Wunderground v.1.15,2013-06-11 05:14:00,
2013-06-10 23:20:00,67.6,59.0,29.92,NNW,333,0.0,13.0,74,0.00,,,0.00,Wunderground v.1.15,2013-06-11 05:20:00,
2013-06-10 23:26:00,67.8,59.2,29.91,North,9,1.0,13.0,74,0.00,,,0.00,Wunderground v.1.15,2013-06-11 05:26:00,
2013-06-10 23:32:00,67.5,58.9,29.92,ENE,57,1.0,13.0,74,0.00,,,0.00,Wunderground v.1.15,2013-06-11 05:32:00,
2013-06-10 23:38:00,67.3,59.1,29.92,NNE,20,2.0,13.0,75,0.00,,,0.00,Wunderground v.1.15,2013-06-11 05:38:00,
2013-06-10 23:44:00,67.1,58.9,29.93,NNE,31,2.0,13.0,75,0.00,,,0.00,Wunderground v.1.15,2013-06-11 05:44:00,
2013-06-10 23:50:00,66.8,59.0,29.93,NNE,31,2.0,13.0,76,0.00,,,0.00,Wunderground v.1.15,2013-06-11 05:50:00,
2013-06-10 23:56:00,66.4,59.0,29.92,NE,38,1.0,13.0,77,0.00,,,0.00,Wunderground v.1.15,2013-06-11 05:56:00,